EST,Max TemperatureF,Mean TemperatureF,Min TemperatureF,Max Dew PointF,MeanDew PointF,Min DewpointF,Max Humidity, Mean Humidity, Min Humidity, Max Sea Level PressureIn, Mean Sea Level PressureIn, Min Sea Level PressureIn, Max VisibilityMiles, Mean VisibilityMiles, Min VisibilityMiles, Max Wind SpeedMPH, Mean Wind SpeedMPH, Max Gust SpeedMPH,PrecipitationIn, CloudCover, Events, WindDirDegrees
2013-11-1,78,72,66,73,70,64,100,94,78,29.99,29.87,29.79,10,8,2,14,5,21,0.00,5,Rain-Thunderstorm,199
2013-11-2,73,65,57,68,55,45,100,74,36,30.05,29.92,29.84,10,10,4,10,4,17,0.00,1,,307
2013-11-3,68,57,46,46,43,37,93,63,33,30.25,30.15,30.05,10,10,10,10,5,16,0.00,0,,13
2013-11-4,71,60,50,54,47,39,76,63,50,30.34,30.30,30.26,10,10,10,12,5,18,0.00,2,,54
2013-11-5,71,61,51,57,48,41,88,63,50,30.36,30.30,30.25,10,10,7,14,8,22,0.00,6,,47
2013-11-6,73,66,60,63,61,59,100,88,69,30.26,30.19,30.13,10,10,7,8,4,,0.00,4,,74
2013-11-7,75,64,53,68,60,41,100,85,59,30.16,30.09,30.04,10,9,0,13,2,18,0.00,3,Fog,325
2013-11-8,64,54,44,43,38,36,87,59,34,30.27,30.22,30.16,10,10,10,13,7,18,0.00,0,,21
2013-11-9,71,58,44,55,47,36,87,67,52,30.30,30.25,30.21,10,10,4,7,3,,0.00,1,,64
2013-11-10,71,62,51,59,55,52,100,83,50,30.28,30.22,30.18,10,10,7,7,1,,0.00,0,,39
2013-11-11,75,62,48,55,50,45,100,72,41,30.24,30.19,30.15,10,10,10,6,1,,0.00,0,,57
2013-11-12,73,58,44,61,45,27,100,68,25,30.33,30.16,30.09,10,8,0,21,3,28,0.00,1,Fog,331
2013-11-13,51,42,33,30,25,18,87,54,26,30.49,30.43,30.33,10,10,10,15,10,31,0.00,0,,31
2013-11-14,66,50,35,50,37,25,88,64,46,30.45,30.37,30.27,10,10,10,9,3,,0.00,0,,63
2013-11-15,64,58,51,59,56,50,100,92,77,30.27,30.19,30.11,10,10,5,10,2,,0.00,2,,108
2013-11-16,75,65,55,64,61,55,100,87,61,30.20,30.15,30.09,10,6,0,7,2,,0.00,7,Fog,97
2013-11-17,77,70,64,72,68,63,100,93,78,30.13,30.06,30.00,10,9,3,10,3,,0.00,7,Rain,165
2013-11-18,73,66,60,72,69,46,100,95,55,30.04,29.98,29.93,10,7,1,15,3,17,0.00,6,Rain-Thunderstorm,241
2013-11-19,66,56,46,50,41,37,82,60,37,30.12,30.05,30.01,10,10,10,12,4,18,0.00,0,,33
2013-11-20,64,58,51,54,47,41,82,72,62,30.25,30.17,30.10,10,10,10,10,6,17,0.00,6,,54
2013-11-21,71,63,55,63,57,50,94,84,68,30.31,30.27,30.23,10,10,10,9,5,,0.00,6,,53
2013-11-22,77,68,59,66,63,59,100,92,69,30.31,30.24,30.17,10,6,0,7,3,,0.00,5,Fog,59
2013-11-23,68,62,55,66,61,41,100,92,58,30.18,30.14,30.09,10,7,2,14,2,22,0.00,7,Rain,318
2013-11-24,55,48,41,37,30,27,66,49,33,30.41,30.30,30.18,10,10,10,16,10,22,0.00,1,,28
2013-11-25,59,48,37,52,35,21,94,63,50,30.40,30.30,30.14,10,10,10,10,7,16,0.00,4,,71
2013-11-26,71,62,53,70,61,52,100,98,94,30.13,29.84,29.68,10,8,2,16,7,28,0.00,8,Rain-Thunderstorm,151
2013-11-27,55,45,35,55,39,30,100,84,61,30.28,29.98,29.69,10,9,2,16,10,28,0.00,5,Rain,302
2013-11-28,50,40,30,36,29,27,100,74,43,30.47,30.39,30.29,10,10,10,8,4,,0.00,0,,19
2013-11-29,59,46,33,41,34,32,100,67,38,30.51,30.46,30.41,10,10,10,9,2,,0.00,0,,35
2013-11-30,59,52,44,48,41,32,82,69,57,30.45,30.38,30.29,10,10,10,9,4,,0.00,4,,46